DELTA 1 DEB, 8314

Orbit data source: Space-Track

DELTA 1 DEB, 8314 is space debris in SSO originally from a launch on Sun, 23 Jul 1972 UTC launched from the Air Force Western Test Range (AFWTR). Debris objects in space refer to the collection of defunct objects orbiting the Earth. Examples of debris include non-operational satellites, rocket bodies, and fragments generated from explosions, collisions, or faulty payload assembly.

Loading next visibility...
Identifier
8314, 1972-058EG
Orbit
SSO
Country
Flag of USUS
Related business
Manufacturer
Unknown
Mission
Spacecraft
Bus & Motor
Unknown
Mass
Unknown
Launch date (UTC)
1972-07-23 (53 years ago)
Launch vehicle
Unknown
Launch site
Air Force Western Test Range (AFWTR)
Object type
Payload
Rocket body
Debris
Shape & HBR
Unknown shape, 0.1 m
Radar Cross Section
Small (<0.1 m²)

Expand to show TLE details & history
Last TLE update: 12 hours ago

TLE from 12 hours ago
0 DELTA 1 DEB
1  8314U 72058EG  25299.56194022  .00005428  00000-0  51830-3 0  9993
2  8314  98.4557 155.9201 0072150 263.4567  95.8432 14.91808866812976
Epoch: 2025-10-26T13:29Z
TLE epoch observation values (Epoch: 2025-10-26T13:29:11.635Z)
Latitude
-0.00002°
Longitude
-81.55474°
Altitude
600.796 km
Speed
7.556 km/s
True Right ascension
10h 23m 40s
True Declination
0° 00' 00"
Sunlit
Object was in daylight at epoch
Visualization orbit readout
Latitude
Unknown
Longitude
Unknown
Altitude
Unknown
Speed
Unknown
Apparent Right ascension
Unknown
Apparent Declination
Unknown
Sunlit
N/A
Visualization observer readout
Local Sidereal Time
21:16:05
Azimuth
Unknown
Elevation
Unknown
Doppler factor
Unknown
Orbital elements
Apogee altitude
639.617 km
Perigee altitude
539.076 km
Semi-major axis
6,967.483 km
Eccentricity
0.00722
Inclination
98.4557°
RAAN
155.9201°
Arg. of periapsis
263.4567°
True anomaly
96.6649°
Mean anomaly
95.8432°
Eccentric anomaly
96.25413°
Mean motion
3.73189 °/min
Orbital period
96.47 mins
BSTAR
0.0005183
Loading maneuver chart data...
Computing Atmospheric mass density...
Loading historical data...
Loading historical data...
Loading historical data...
Loading historical data...
Loading historical data...
Loading historical data...
Loading historical data...

Documentation

Showing up to 5 results
|